Tracking 31027 objects as of 19-Jul-2025
HD Live streaming from Space Station
objects crossing your sky now

SL-16 DEB

Track SL-16 DEB now!
10-day predictions


NORAD ID: 22297
Int'l Code: 1992-093M
Perigee: 808.1 km
Apogee: 951.2 km
Inclination: 70.9 °
Period: 102.4 minutes
Semi major axis: 7250 km
RCS: 0.0355 m2 (small)
Launch date: December 25, 1992
Source: Commonwealth of Independent States (former USSR) (CIS)
Launch site: TYURATAM MISSILE AND SPACE COMPLEX (TTMTR)

Note: This is SATELLITE DEBRIS
Your satellite tracking list
DELTA 1 DEB
Track 1 satellite(s)




NASA's NSSDC Master Catalog

Two Line Element Set (TLE):
1 22297U 92093M   25199.81950666  .00000224  00000-0  15766-3 0  9998
2 22297  70.9471 141.7452 0098663  27.1496 333.4731 14.06159446666526
Source of the keplerian elements: AFSPC